Ft Riley, KS

4:40 AM CDT on June 27, 2017 (GMT -0500)
Marshall Army Air Field

Weather History for KFRI - December, 2013

Change the Weather History Date:

Sunday, December 8, 2013

  Actual Average (KMHK) Record (KMHK)
Temperature  
Mean Temperature 18 °F -  
Max Temperature 23 °F 44 °F 60 °F (2008)
Min Temperature 9 °F 22 °F -11 °F (2005)
Degree Days  
Heating Degree Days 46    
Moisture  
Dew Point 19 °F    
Average Humidity 93    
Maximum Humidity 100    
Minimum Humidity 49    
Precipitation  
Precipitation 0.00 in - - ()
Sea Level Pressure  
Sea Level Pressure 30.08 in    
Wind  
Wind Speed 7 mph (SSW)    
Max Wind Speed 12 mph    
Max Gust Speed 20 mph    
Visibility 8 miles    
Events Snow    
Averages and records for this station are not official NWS values.
T = Trace of Precipitation, MM = Missing Value Source: NWS Daily Summary

Daily Weather History Graph

Daily Weather History Graph

Search for Another Location

Airport or City:

Trip Planner

Search our weather history database for the weather conditions in past years. The results will help you decide how hot, cold, wet, or windy it might be!

Date:

Astronomy

Dec. 08, 2013 Rise Set
Actual Time 7:33 AM CST 5:04 PM CST
Civil Twilight 7:03 AM CST 5:34 PM CST
Nautical Twilight 6:30 AM CST 6:07 PM CST
Astronomical Twilight 5:58 AM CST 6:40 PM CST
Moon 11:57 AM CST (12/8) 11:52 PM CST (12/8)
Length of Visible Light 10h 30m
Length of Day
9h 30m
Waxing Crescent, 40% of the Moon is Illuminated
Dec 8
Waxing Crescent
Dec 9
First Quarter
Dec 17
Full
Dec 25
Last Quarter
Jan 1
New

Hourly Weather History & Observations

Time (CST) Temp. Windchill Dew Point Humidity Pressure Visibility Wind Dir Wind Speed Gust Speed Precip Events Conditions
12:21 AM 19.4 °F 7.9 °F 3.2 °F 49% 30.30 in 10.0 mi East 10.4 mph - N/A Snow Light Snow
12:41 AM 19.4 °F 7.9 °F 5.0 °F 54% 30.29 in 10.0 mi East 10.4 mph - N/A   Overcast
12:58 AM 19.0 °F 7.5 °F 5.4 °F 55% 30.33 in 10.0 mi East 10.4 mph - 0.00 in   Overcast
1:58 AM 19.0 °F 8.2 °F 5.5 °F 56% 30.30 in 10.0 mi East 9.2 mph - N/A   Overcast
2:58 AM 19.2 °F 7.0 °F 5.5 °F 55% 30.25 in 10.0 mi East 11.5 mph - N/A   Overcast
3:58 AM 19.2 °F 7.7 °F 6.8 °F 59% 30.21 in 10.0 mi East 10.4 mph - N/A   Overcast
4:58 AM 19.2 °F 9.3 °F 9.0 °F 64% 30.18 in 10.0 mi East 8.1 mph - N/A   Overcast
5:18 AM 19.4 °F 7.2 °F 10.4 °F 68% 30.12 in 10.0 mi ESE 11.5 mph 19.6 mph N/A   Overcast
5:28 AM 19.4 °F 8.6 °F 12.2 °F 74% 30.12 in 10.0 mi ESE 9.2 mph - N/A   Overcast
5:34 AM 19.4 °F 8.6 °F 12.2 °F 74% 30.12 in 10.0 mi ESE 9.2 mph - N/A Snow Light Snow
5:44 AM 19.4 °F 7.9 °F 12.2 °F 74% 30.11 in 10.0 mi ESE 10.4 mph - N/A   Overcast
5:56 AM 17.6 °F 8.2 °F 14.0 °F 86% 30.11 in 9.0 mi ESE 6.9 mph - N/A Snow Light Snow
5:58 AM 17.6 °F 8.2 °F 14.0 °F 86% 30.16 in 9.0 mi ESE 6.9 mph - 0.00 in Snow Light Snow
6:20 AM 17.6 °F 5.7 °F 15.8 °F 93% 30.09 in 10.0 mi ESE 10.4 mph - N/A   Overcast
6:33 AM 17.6 °F 7.3 °F 15.8 °F 93% 30.09 in 10.0 mi SE 8.1 mph - N/A   Light Freezing Drizzle
6:50 AM 17.6 °F 8.2 °F 15.8 °F 93% 30.09 in 10.0 mi ESE 6.9 mph - N/A   Overcast
6:58 AM 18.1 °F 7.9 °F 15.6 °F 90% 30.14 in 10.0 mi ESE 8.1 mph - 0.00 in   Overcast
7:58 AM 18.3 °F 8.2 °F 16.2 °F 91% 30.14 in 10.0 mi ESE 8.1 mph - N/A   Overcast
8:26 AM 17.6 °F 9.3 °F 17.6 °F 100% 30.10 in 7.0 mi SE 5.8 mph - N/A Snow Light Snow
8:51 AM 19.4 °F 10.4 °F 17.6 °F 93% 30.09 in 4.0 mi SE 6.9 mph - N/A Snow Light Snow
8:56 AM 19.4 °F 11.5 °F 19.4 °F 100% 30.09 in 3.0 mi SE 5.8 mph - N/A Snow Light Snow
8:58 AM 19.4 °F 12.8 °F 19.4 °F 100% 30.14 in 3.0 mi SE 4.6 mph - 0.00 in Snow Light Snow
9:13 AM 19.4 °F 10.4 °F 19.4 °F 100% 30.08 in 2.5 mi ESE 6.9 mph - N/A Snow Light Snow
9:23 AM 19.4 °F 10.4 °F 19.4 °F 100% 30.08 in 2.5 mi SE 6.9 mph - N/A Snow Light Snow
9:28 AM 19.4 °F 8.6 °F 19.4 °F 100% 30.07 in 3.0 mi ESE 9.2 mph - N/A Snow Light Snow
9:33 AM 19.4 °F 10.4 °F 19.4 °F 100% 30.06 in 3.0 mi ESE 6.9 mph - N/A Snow Light Snow
9:43 AM 19.4 °F 12.8 °F 19.4 °F 100% 30.07 in 3.0 mi ESE 4.6 mph - N/A Snow Light Snow
9:47 AM 19.4 °F 11.5 °F 19.4 °F 100% 30.07 in 4.0 mi ESE 5.8 mph - N/A   Overcast
9:48 AM 19.4 °F 10.4 °F 19.4 °F 100% 30.07 in 4.0 mi ESE 6.9 mph - N/A   Light Freezing Drizzle
9:58 AM 19.9 °F 8.6 °F 19.8 °F 99% 30.12 in 5.0 mi SE 10.4 mph - 0.00 in   Light Freezing Drizzle
10:03 AM 19.4 °F 9.5 °F 19.4 °F 100% 30.07 in 6.0 mi SE 8.1 mph - N/A   Light Freezing Drizzle
10:09 AM 19.4 °F 9.5 °F 19.4 °F 100% 30.07 in 7.0 mi SE 8.1 mph - N/A   Overcast
10:45 AM 19.4 °F 12.8 °F 19.4 °F 100% 30.05 in 5.0 mi SE 4.6 mph - N/A Snow Light Snow
10:58 AM 20.3 °F 12.5 °F 19.9 °F 99% 30.09 in 5.0 mi SE 5.8 mph - 0.00 in Snow Light Snow
11:10 AM 21.2 °F 13.6 °F 19.4 °F 93% 30.05 in 5.0 mi SE 5.8 mph - N/A   Overcast
11:11 AM 21.2 °F 13.6 °F 21.2 °F 100% 30.05 in 6.0 mi SE 5.8 mph - N/A   Light Freezing Drizzle
11:25 AM 21.2 °F 13.6 °F 21.2 °F 100% 30.04 in 6.0 mi SE 5.8 mph - N/A Snow Light Snow
11:45 AM 21.2 °F 11.7 °F 21.2 °F 100% 30.03 in 8.0 mi SSE 8.1 mph - N/A Snow Light Snow
11:46 AM 21.2 °F 11.7 °F 21.2 °F 100% 30.03 in 8.0 mi SSE 8.1 mph - N/A   Overcast
11:47 AM 21.2 °F 10.9 °F 21.2 °F 100% 30.02 in 9.0 mi South 9.2 mph - N/A   Light Freezing Drizzle
11:52 AM 21.2 °F 12.6 °F 21.2 °F 100% 30.02 in 10.0 mi SSE 6.9 mph - N/A   Light Freezing Drizzle
11:58 AM 21.2 °F 12.6 °F 21.0 °F 99% 30.06 in 10.0 mi SSE 6.9 mph - 0.00 in   Light Freezing Drizzle
12:06 PM 21.2 °F 12.6 °F 21.2 °F 100% 30.02 in 9.0 mi SE 6.9 mph - N/A   Overcast
12:31 PM 21.2 °F 14.9 °F 21.2 °F 100% 30.00 in 10.0 mi South 4.6 mph - N/A   Overcast
12:33 PM 21.2 °F 14.9 °F 21.2 °F 100% 30.00 in 10.0 mi SSE 4.6 mph - N/A Snow Light Snow
12:43 PM 21.2 °F 16.4 °F 21.2 °F 100% 30.00 in 10.0 mi South 3.5 mph - N/A Snow Light Snow
12:58 PM 21.9 °F 15.7 °F 21.6 °F 99% 30.04 in 9.0 mi Variable 4.6 mph - 0.00 in Snow Light Snow
1:41 PM 21.2 °F - 21.2 °F 100% 29.97 in 10.0 mi South 2.3 mph - N/A   Overcast
1:46 PM 23.0 °F 18.4 °F 21.2 °F 93% 29.97 in 10.0 mi SSE 3.5 mph - N/A   Overcast
1:58 PM 22.5 °F 16.3 °F 21.9 °F 98% 30.01 in 10.0 mi SSW 4.6 mph - 0.00 in   Overcast
1:59 PM 23.0 °F 18.4 °F 21.2 °F 93% 29.97 in 9.0 mi SSW 3.5 mph - N/A Snow Light Snow
2:07 PM 23.0 °F 18.4 °F 21.2 °F 93% 29.97 in 9.0 mi SW 3.5 mph - N/A   Overcast
2:11 PM 23.0 °F - 21.2 °F 93% 29.97 in 8.0 mi Variable 2.3 mph - N/A Snow Light Snow
2:20 PM 23.0 °F - 21.2 °F 93% 29.97 in 9.0 mi South 1.2 mph - N/A   Overcast
2:44 PM 23.0 °F 18.4 °F 23.0 °F 100% 29.97 in 9.0 mi West 3.5 mph - N/A   Overcast
2:54 PM 23.0 °F - 21.2 °F 93% 29.97 in 10.0 mi NW 1.2 mph - N/A   Overcast
2:58 PM 22.5 °F - 21.6 °F 96% 30.01 in 10.0 mi Variable 2.3 mph - 0.00 in   Overcast
3:01 PM 23.0 °F - 21.2 °F 93% 29.97 in 9.0 mi West 2.3 mph - N/A   Overcast
3:14 PM 23.0 °F - 23.0 °F 100% 29.97 in 10.0 mi West 2.3 mph - N/A   Overcast
3:19 PM 23.0 °F 17.0 °F 21.2 °F 93% 29.97 in 10.0 mi West 4.6 mph - N/A   Overcast
3:35 PM 23.0 °F 17.0 °F 21.2 °F 93% 29.99 in 9.0 mi West 4.6 mph - N/A   Overcast
3:40 PM 23.0 °F 15.8 °F 21.2 °F 93% 30.00 in 8.0 mi West 5.8 mph - N/A   Overcast
3:55 PM 23.0 °F 17.0 °F 23.0 °F 100% 30.00 in 8.0 mi West 4.6 mph - N/A   Overcast
3:58 PM 22.6 °F 16.5 °F 22.5 °F 99% 30.04 in 8.0 mi West 4.6 mph - 0.00 in   Overcast
4:03 PM 23.0 °F 18.4 °F 23.0 °F 100% 30.00 in 6.0 mi West 3.5 mph - N/A Snow Light Snow
4:08 PM 23.0 °F 17.0 °F 23.0 °F 100% 30.01 in 5.0 mi West 4.6 mph - N/A Snow Light Snow
4:23 PM 23.0 °F 15.8 °F 23.0 °F 100% 30.02 in 2.0 mi West 5.8 mph - N/A Snow Light Snow
4:28 PM 23.0 °F 15.8 °F 23.0 °F 100% 30.02 in 1.8 mi West 5.8 mph - N/A Snow Light Snow
4:33 PM 23.0 °F 15.8 °F 23.0 °F 100% 30.02 in 2.0 mi West 5.8 mph - N/A Snow Light Snow
4:38 PM 23.0 °F 15.8 °F 21.2 °F 93% 30.02 in 2.5 mi West 5.8 mph - N/A Snow Light Snow
4:43 PM 23.0 °F 15.8 °F 21.2 °F 93% 30.03 in 3.0 mi West 5.8 mph - N/A Snow Light Snow
4:53 PM 23.0 °F 14.7 °F 21.2 °F 93% 30.03 in 2.5 mi West 6.9 mph - N/A Snow Light Snow
4:58 PM 22.3 °F 16.1 °F 22.1 °F 99% 30.07 in 2.0 mi West 4.6 mph - 0.00 in Snow Light Snow
5:08 PM 23.0 °F 17.0 °F 21.2 °F 93% 30.03 in 2.5 mi West 4.6 mph - N/A Snow Light Snow
5:13 PM 23.0 °F 18.4 °F 21.2 °F 93% 30.04 in 3.0 mi West 3.5 mph - N/A Snow Light Snow
5:23 PM 23.0 °F 17.0 °F 21.2 °F 93% 30.04 in 4.0 mi West 4.6 mph - N/A Snow Light Snow
5:33 PM 23.0 °F 17.0 °F 21.2 °F 93% 30.05 in 5.0 mi West 4.6 mph - N/A Snow Light Snow
5:38 PM 23.0 °F 17.0 °F 21.2 °F 93% 30.05 in 6.0 mi West 4.6 mph - N/A Snow Light Snow
5:43 PM 23.0 °F 17.0 °F 21.2 °F 93% 30.05 in 7.0 mi West 4.6 mph - N/A Snow Light Snow
5:53 PM 21.2 °F 14.9 °F 21.2 °F 100% 30.06 in 8.0 mi West 4.6 mph - N/A Snow Light Snow
5:58 PM 22.1 °F 15.9 °F 21.9 °F 99% 30.11 in 9.0 mi West 4.6 mph - 0.00 in Snow Light Snow
6:18 PM 21.2 °F 14.9 °F 21.2 °F 100% 30.06 in 9.0 mi West 4.6 mph - N/A Snow Light Snow
6:23 PM 21.2 °F 14.9 °F 21.2 °F 100% 30.07 in 10.0 mi West 4.6 mph - N/A Snow Light Snow
6:28 PM 21.2 °F 14.9 °F 21.2 °F 100% 30.07 in 10.0 mi West 4.6 mph - N/A   Overcast
6:40 PM 21.2 °F 13.6 °F 21.2 °F 100% 30.07 in 10.0 mi West 5.8 mph - N/A Snow Light Snow
6:58 PM 21.2 °F 14.9 °F 21.0 °F 99% 30.13 in 8.0 mi WNW 4.6 mph - 0.00 in Snow Light Snow
7:03 PM 21.2 °F 14.9 °F 21.2 °F 100% 30.09 in 9.0 mi NW 4.6 mph - N/A Snow Light Snow
7:13 PM 21.2 °F 10.9 °F 21.2 °F 100% 30.10 in 10.0 mi NW 9.2 mph - N/A Snow Light Snow
7:14 PM 21.2 °F 11.7 °F 21.2 °F 100% 30.10 in 10.0 mi NW 8.1 mph - N/A   Overcast
7:24 PM 21.2 °F 10.9 °F 19.4 °F 93% 30.10 in 10.0 mi NW 9.2 mph - N/A   Overcast
7:29 PM 21.2 °F 12.6 °F 19.4 °F 93% 30.10 in 10.0 mi NNW 6.9 mph - N/A   Overcast
7:49 PM 19.4 °F 10.4 °F 17.6 °F 93% 30.11 in 10.0 mi NW 6.9 mph - N/A   Overcast
7:54 PM 19.4 °F 11.5 °F 17.6 °F 93% 30.11 in 10.0 mi NW 5.8 mph - N/A   Mostly Cloudy
7:58 PM 19.9 °F 12.1 °F 17.6 °F 91% 30.16 in 10.0 mi NW 5.8 mph - 0.00 in   Mostly Cloudy
8:03 PM 19.4 °F 11.5 °F 17.6 °F 93% 30.11 in 10.0 mi NW 5.8 mph - N/A   Mostly Cloudy
8:08 PM 19.4 °F 11.5 °F 17.6 °F 93% 30.11 in 10.0 mi NW 5.8 mph - N/A   Scattered Clouds
8:38 PM 19.4 °F 10.4 °F 17.6 °F 93% 30.12 in 10.0 mi NW 6.9 mph - N/A   Mostly Cloudy
8:58 PM 19.0 °F 12.3 °F 16.7 °F 91% 30.18 in 10.0 mi NNW 4.6 mph - N/A   Mostly Cloudy
9:03 PM 17.6 °F 10.7 °F 15.8 °F 93% 30.13 in 10.0 mi NNW 4.6 mph - N/A   Scattered Clouds
9:58 PM 16.0 °F 8.8 °F 13.6 °F 90% 30.22 in 10.0 mi WNW 4.6 mph - N/A   Clear
10:58 PM 14.9 °F 6.1 °F 12.2 °F 89% 30.25 in 10.0 mi WNW 5.8 mph - N/A   Clear
11:58 PM 9.3 °F 2.8 °F 8.2 °F 95% 30.26 in 10.0 mi West 3.5 mph - N/A   Clear